Preview of NWS' New Version of Forecast
This preview is not operational and should not be used for support decisions.
Latest weather observations around

Tucson, Tucson International Airport (KTUS)

Using English Units (Switch to International System of Units)
Date/ Time (MST) Wind (mph) Vis. (mi) Weather Sky Cond. Temp (°F) Rel. Humidity Wind Chill (°F) Heat Index (°F) Pressure Precip. (in)
Air Dwpt 6 hour Altimeter (inHg) Sea level (inHg) 1 hr 3 hr 6 hr
Max Min
Jun 26 14:53 W 10 10 Clear CLR 99 41     14%   94 29.95 29.79      
Jun 26 13:53 6 10 Clear CLR 98 42     15%   94 29.97 29.8      
Jun 26 12:53 NW 8 10 Clear CLR 97 43     16%   93 29.99 29.83      
Jun 26 11:53 SSW 13 10 Clear CLR 95 43     17%   91 30.01 29.85      
Jun 26 10:53 SE 8 10 Clear CLR 93 42     17%   89 30.02 29.86      
Jun 26 09:53 Calm 10 Clear CLR 89 40     18%   85 30.03 29.87      
Jun 26 08:53 SSW 7 10 Clear CLR 84 40     21%   81 30.03 29.88      
Jun 26 07:53 SSE 7 10 Clear CLR 81 39     22%   80 30.04 29.88      
Jun 26 06:53 SE 6 10 Clear CLR 75 37     25%   73 30.02 29.87      
Jun 26 05:53 SE 6 10 Clear CLR 70 35     28%     30 29.85      
Jun 26 04:53 SE 5 10 Clear CLR 69 35     29%     29.99 29.84      
Jun 26 03:53 SSE 7 10 Clear CLR 71 34     26%   69 29.98 29.83      
Jun 26 02:53 S 5 10 Clear CLR 73 35     25%   71 29.96 29.8      
Jun 26 01:53 SSW 3 10 Clear CLR 75 34     22%   73 29.96 29.8      
Jun 26 00:53 S 5 10 Clear CLR 77 36     23%   75 29.96 29.8      
Jun 25 23:53 W 5 10 Clear CLR 78 38     24%   77 29.94 29.78      
Jun 25 22:53 WNW 6 10 Clear CLR 82 37     20%   80 29.95 29.79      
Jun 25 21:53 WNW 6 10 Clear CLR 86 37     18%   83 29.93 29.77      
Jun 25 20:53 W 13 10 Clear CLR 89 35     15%   85 29.9 29.74      
Jun 25 19:53 W 10 10 Clear CLR 93 27     9%   88 29.87 29.72      
Jun 25 18:53 W 11 10 Clear CLR 96 28     9%   90 29.85 29.7      
Jun 25 17:53 WSW 15 10 Clear CLR 99 31     9%   93 29.84 29.69      
Jun 25 16:53 SSW 16 10 Clear CLR 101 33     9%   95 29.84 29.68      
Jun 25 15:53 SSW 8 10 Clear CLR 101 33     9%   95 29.84 29.69      
Jun 25 14:53 W 5 10 Clear CLR 100 31     9%   94 29.85 29.7      
Jun 25 13:53 NW 8 10 Clear CLR 99 32     10%   93 29.88 29.72      
Jun 25 12:53 3 10 Clear CLR 99 32     10%   93 29.9 29.74      
Jun 25 11:53 Calm 10 Clear CLR 96 31     10%   90 29.92 29.76      
Jun 25 10:53 3 10 Clear CLR 93 31     11%   88 29.94 29.78      
Jun 25 09:53 WNW 5 10 Clear CLR 89 32     13%   85 29.96 29.8      
Jun 25 08:53 S 5 10 Clear CLR 85 36     17%   82 29.96 29.8      
Jun 25 07:53 SSE 5 10 Clear CLR 79 36     21%   78 29.95 29.8      
Jun 25 07:34 S 6 10 Clear CLR 77 36     23%   75 29.95        
Jun 25 06:53 SSE 8 10 Clear CLR 73 35     25%   71 29.94 29.79      
Jun 25 05:53 SE 8 10 Clear CLR 68 33     27%     29.91 29.77      
Jun 25 04:53 SE 7 10 Clear CLR 69 32     25%     29.91 29.76      
Jun 25 03:53 SSE 5 10 Clear CLR 70 33     26%     29.89 29.74      
Jun 25 02:53 SSE 6 10 Clear   71 34     26%   69 29.89 29.74      
Jun 25 01:53 SE 5 10 Clear CLR 74 34     23%   72 29.89 29.74      
Jun 25 00:53 ESE 8 10 Clear CLR 78 32     19%   76 29.9 29.73      
Jun 24 23:53 S 7 10 Clear CLR 80 32     17%   79 29.89 29.73      
Jun 24 22:53 W 9 10 Clear CLR 84 32     15%   81 29.89 29.72      
Jun 24 21:53 W 8 10 Clear CLR 86 30     13%   83 29.88 29.72      
Jun 24 20:53 NW 3 10 Clear CLR 89 24     9%   84 29.85 29.69      
Jun 24 19:53 NNW 7 10 Clear CLR 92 23     8%   86 29.84 29.68      
Jun 24 18:53 NNW 9 10 Clear CLR 97 23     7%   90 29.83 29.67      
Jun 24 17:53 N 5 10 Clear   99 22     6%   92 29.82 29.67      
Jun 24 16:53 7 10 Clear CLR 101 24     7%   94 29.83 29.67      
Jun 24 14:53 5 10 Clear   97 22     7%   90 29.87 29.71      
Jun 24 13:53 ESE 5 10 Clear CLR 97 21     7%   90 29.88 29.73      
Jun 24 12:53 WSW 6 10 Clear CLR 97 28     9%   91 29.91 29.75      
Jun 24 12:17 WSW 6 10 Clear CLR 93 29     10%   88 29.92        
Jun 24 11:59 WSW 6 10 Clear CLR 93 29     10%   88 29.93        
Jun 24 11:53 WSW 10 10 Clear CLR 94 29     10%   89 29.93 29.77      
Jun 24 10:53 5 10 Clear CLR 94 30     10%   89 29.95 29.79      
Jun 24 09:53 Calm 10 Clear CLR 88 30     12%   84 29.96 29.8      
Jun 24 08:53 3 10 Clear CLR 84 29     14%   81 29.97 29.82      
Jun 24 07:53 SE 7 10 Clear CLR 77 30     18%   75 29.98 29.83      
Jun 24 06:53 SE 7 10 Clear CLR 71 30     22%   69 29.97 29.83      
Jun 24 05:53 SE 8 10 Clear CLR 67 30     25%     29.95 29.82      
Jun 24 04:53 SSE 6 10 Clear CLR 67 31     26%     29.94 29.8      
Jun 24 03:53 SSE 7 10 Clear CLR 69 31     24%     29.93 29.79      
Jun 24 02:53 SE 7 10 Clear CLR 72 31     22%   70 29.93 29.79      
Jun 24 01:53 SE 3 10 Clear CLR 71 28     20%   69 29.93 29.79      
Jun 24 00:53 WSW 5 10 Clear CLR 75 30     19%   73 29.93 29.79      
Jun 23 23:53 WSW 8 10 Clear CLR 78 32     19%   76 29.94 29.79      
Jun 23 22:53 WSW 5 10 Clear CLR 80 32     17%   79 29.94 29.79      
Jun 23 21:53 NNW 7 10 Clear CLR 85 30     14%   82 29.93 29.78      
Jun 23 20:53 NNW 6 10 Clear CLR 86 30     13%   83 29.92 29.77      
Jun 23 19:53 NW 7 10 Clear CLR 89 29     12%   85 29.9 29.75      
Jun 23 18:53 NNW 11 10 Clear CLR 93 27     9%   88 29.89 29.74      
Jun 23 17:53 NW 11 10 Clear CLR 94 23     8%   88 29.89 29.74      
Jun 23 17:25 NW 11 10 Clear CLR 95 23     8%   89 29.89        
Jun 23 16:56 NW 11 10 Clear CLR 96 23     7%   90 29.89        
Jun 23 16:53   10 Clear CLR 95 23     8%   89 29.89 29.75      
Jun 23 15:53 SW 8 10 Clear CLR 94 21     7%   88 29.91 29.76      
Jun 23 14:53 W 8 10 Clear CLR 94 20     7%   88 29.93 29.78      
Jun 23 14:42 3 10 Clear CLR 95 19     6%   88 29.93        
Jun 23 13:53 SSW 6 10 Clear CLR 93 18     6%   87 29.95 29.8      
Jun 23 12:53 SW 8 10 Clear CLR 92 25     9%   87 29.96 29.82      
May 15 03:53 S 7 10 Clear CLR 64 23     21%     29.98 29.85      
May 14 07:53 SE 6 10 Clear CLR 74 36     25%   72 29.99 29.86      
May 13 19:53 WSW 14 10 Clear CLR 81 40     23%   80 29.92 29.8      
May 13 14:53 WSW 17 10 Clear CLR 88        %     29.93 29.8      
May 13 13:53   10 Clear CLR 90 22     8%   85 29.93 29.8      
May 12 16:53 SSW 23 10 Clear and Windy CLR 90 24     9%   85 29.85 29.7      
May 11 21:55 SSW 16 10 Clear CLR 84 39     20%   81 29.84        
May 11 12:53   10 Clear CLR 96 29     9%   90 29.8 29.64      
May 11 10:53   10 Clear CLR 93 29     10%   88 29.85 29.69      
Jun 11 15:53 WSW 14 10 Clear CLR 96 20     6%   89 29.84 29.69      
Jun 11 10:53 SW 11 10 Clear CLR 93 20     7%   87 29.9 29.74      
Jun 10 15:53 S 15 10 Clear CLR 102 3     3%   94 29.78 29.62      
Jun 08 21:53 NNW 8 10 Clear CLR 90 30     12%   86 29.92 29.75      
Jun 08 16:53 N 14 10 Clear CLR 101 29     8%   94 29.88 29.71      
Jun 08 05:53 SE 10 10 Clear CLR 79 50     36%   78 30 29.85      
Jun 07 16:30 SSE 17 10 Clear CLR 99 46     17%   95 29.89        
Jun 07 14:53 NW 15 10 Clear CLR 105 40     11%   100 29.89 29.71      
Jun 05 21:53 WNW 9 10 Clear CLR 92 37     15%   88 29.9 29.72